Location: Crocus Hill
(18.2167°N, 63.0667°W)
Time: 15:36:45
(UTC+00:00)

OAO 3 Copernicus - Pass Details

Date: 26 January 2020
Orbit: 695 x 704 km, 35.0° (Epoch: 23 February)

Event Time Altitude Azimuth Distance (km) Brightness Sun altitude
Exits shadow 09:01:06 58° 207° (SSW) 810 4.4 -24.9°
Drops below altitude 10° 09:05:55 10° 136° (SE) 2,150 7.6 -23.8°
Sets 09:08:20 0° 132° (SE) 3,065 8.6 -23.3°
